Regional Weather Roundup
Issued by NWS Wakefield, VA

Home | Current Version | Previous Version | Graphics & Text | Print | Product List | Glossary On
Versions: 1 2 3 4 5 6 7 8 9 10 11 12 13 14 15 16 17 18 19 20 21 22 23 24 25 26 27 28 29 30 31 32 33 34 35 36 37 38 39 40 41 42 43 44 45 46 47 48 49 50
000
ASUS41 KAKQ 190510
RWRAKQ

REGIONAL WEATHER ROUNDUP
NATIONAL WEATHER SERVICE WAKEFIELD VA
100 AM EDT FRI SEP 19 2014

Note: "fair" indicates few or no clouds below 12,000 feet with no
significant weather and/or obstructions to visibility. * = Denotes
station may not report precipitation (e.g., rain,snow,etc.),
thunder or fog.

VAZ042-051-052>054-056-190600-
NORTHERN VIRGINIA

CITY           SKY/WX    TMP DP  RH WIND       PRES   REMARKS
WASH NATIONAL  CLEAR     66  60  81 E6        30.12S
DULLES         PTCLDY    55  53  93 CALM      30.12S
FORT BELVOIR   CLEAR     57  57 100 CALM      30.12R
QUANTICO       CLEAR     62  59  90 NW6       30.12R
FREDERICKSBRG* PTCLDY    61  61 100 SW3       30.11R FOG
STAFFORD*      FOG       56  56 100 CALM      30.15R VSB 1/2
WARRENTON      CLEAR     53  53 100 NE5       30.11S FOG
CULPEPER*      CLEAR     57  55  94 CALM      30.13R FOG
MANASSAS*      CLEAR     59  57  94 CALM      30.12S
LEESBURG*      CLEAR     59  55  88 N3        30.13S
WINCHESTER     CLEAR     54  46  76 CALM      30.14R
FRONT ROYAL*   CLEAR     54  52  94 CALM      30.12F
LURAY*         MOCLDY    61  54  77 NE6       30.13S
$$

VAZ048-049-060>072-079>083-190600-
CENTRAL AND SOUTH CENTRAL VIRGINIA...AND NORTH CENTRAL NORTH CAROLINA

CITY           SKY/WX    TMP DP  RH WIND       PRES   REMARKS
RICHMOND       MOCLDY    63  58  83 CALM      30.09S
CHESTERFIELD*  MOCLDY   N/A N/A N/A CALM      30.11R
PETERSBURG*    PTCLDY    58  56  95 CALM      30.11R
HANOVER        PTCLDY    60  59  96 CALM      30.11S FOG
TAPPAHANNOCK*  CLEAR     57  55  93 CALM      30.11R FOG
CHARLOTTSVILLE MOCLDY    62  59  90 CALM      30.11S
ORANGE*        PTCLDY    61  59  94 CALM      30.13R FOG
LOUISA*        CLOUDY    59  57  94 CALM      30.10S FOG
FARMVILLE*     CLOUDY    66  64  94 N3        30.08S
CREWE*         CLOUDY    64  60  89 CALM      30.10R
FORT PICKETT*  CLOUDY    64  59  82 E3        30.10S
LUNENBURG*     CLOUDY    64  61  88 CALM      30.09S
SOUTH HILL*    CLOUDY    64  63  94 CALM      30.14S
LAWRENCEVILLE* CLOUDY    64  61  91 CALM      30.09S
ROANOKE RAPIDS MOCLDY    59  57  94 CALM      30.09S
RALEIGH        MOCLDY    69  59  70 SE7       30.08S
$$

VAZ088>098-190600-
SOUTHEAST VIRGINIA

CITY           SKY/WX    TMP DP  RH WIND       PRES   REMARKS
NORFOLK        CLOUDY    68  58  70 CALM      30.09R
VIRGINIA BEACH CLOUDY    69  58  67 CALM      30.08R
NORFOLK NAVAL  CLOUDY    69  58  67 CALM      30.10R
WEST POINT*    CLEAR     61  58  90 CALM      30.11S
NEWPORT NEWS   CLOUDY    68  61  78 CALM      30.09R
LANGLEY AFB    CLOUDY    67  60  78 SW2       30.09R
FORT EUSTIS    CLOUDY    68  55  61 CALM      30.08R
WILLIAMSBURG*  PTCLDY    66  61  82 CALM      30.10R
HR EXEC AP*    PTCLDY    57  55  94 CALM      30.11R
FRANKLIN*      CLEAR     59  57  94 CALM      30.10R
WAKEFIELD      CLOUDY    62  59  90 CALM      30.10R
$$

VAZ020-022-025-037-045-190600-
WEST CENTRAL AND SOUTHWEST VIRGINIA

CITY           SKY/WX    TMP DP  RH WIND       PRES   REMARKS
STAUNTON*      CLOUDY    62  56  81 CALM      30.14S
HOT SPRINGS VA CLOUDY    55  44  67 E6        30.20S
LYNCHBURG      CLOUDY    64  62  93 N7        30.12R
DANVILLE       CLOUDY    67  64  90 E3        30.08S
SOUTH BOSTON*  NOT AVBL
MARTINSVILLE   LGT RAIN  64  64 100 CALM      30.11S
ROANOKE        PTCLDY    64  61  90 CALM      30.12R
BLACKSBURG     CLOUDY    57  57 100 CALM      30.15R
DUBLIN*        CLOUDY    60  58  93 CALM      30.14S
MARION*        CLOUDY    60  58  90 CALM      30.16S
HILLSVILLE*    CLOUDY    60  57  91 CALM      30.14S
RICHLANDS*     CLOUDY    61  56  84 NE7       30.13F
WISE*          CLEAR     57  54  88 CALM      30.15S
ABINGDON*      PTCLDY    61  56  85 E3        30.10F
$$

MDZ021>025-VAZ099-100-190600-
SOUTHERN MARYLAND AND THE DELMARVA PENINSULA

CITY           SKY/WX    TMP DP  RH WIND       PRES   REMARKS
PATUXENT RIVER CLEAR     58  56  93 CALM      30.10R
BAY BRIDGE APT   N/A     61  59  94 CALM      30.11S
LEONARDTOWN    CLEAR     57  55  94 CALM      30.12S
DOVER          CLEAR     61  57  85 SW1       30.08S
GEORGETOWN     MOCLDY    62  56  80 SE7       30.11R
EASTON         CLEAR     61  61 100 CALM      30.14R
CAMBRIDGE      PTCLDY    61  59  94 CALM      30.10R
SALISBURY      CLOUDY    65  59  81 CALM      30.10S
OCEAN CITY     MOCLDY    61  56  83 CALM      30.10S
WALLOPS ISLAND CLOUDY    63  59  87 NW5       30.11R
ACCOMACK*      PTCLDY    55  54  94 CALM      30.09S
$$

NCZ012>017-030>032-190600-
EASTERN NORTH CAROLINA

CITY           SKY/WX    TMP DP  RH WIND       PRES   REMARKS
ELIZABETH CITY CLEAR     64  58  80 E3        30.08S
AHOSKIE*       CLEAR     58  56  95 CALM      30.09S
EDENTON*       CLEAR     60  59  96 CALM      30.08S
CURRITUCK*     CLOUDY    68  57  66 CALM      30.09S
KILL DEVIL HLS CLEAR     70  57  62 E5        30.07S
MANTEO         CLEAR     68  58  68 NE7       30.08S
CAPE HATTERAS  CLEAR     67  60  78 NE5       30.06S
TARBORO*       CLEAR     60  58  94 CALM      30.09S
GOLDSBORO      CLEAR     64  63  98 CALM      30.06S
WASHINGTON     CLEAR     60  57  91 CALM      30.08S
GREENVILLE     CLEAR     63  59  88 CALM      30.10R
NEW BERN       CLEAR     67  59  75 E5        30.08S
WILMINGTON     PTCLDY    65  62  90 N5        30.04S
$$

VAZ048-190600-
ELSEWHERE

CITY           SKY/WX    TMP DP  RH WIND       PRES   REMARKS
HARRISBURG PA  PTCLDY    56  50  80 N6        30.13R
BALTIMORE      PTCLDY    58  56  93 CALM      30.11S
ANNAPOLIS      CLEAR     64  62  93 CALM      30.11R FOG
ANDREWS AFB    CLEAR     57  56  99 NE3       30.11S
WILMINGTON DE  CLEAR     57  56  96 NW5       30.12R
PHILADELPHIA   PTCLDY    61  53  75 NW7       30.11S
WILDWOOD NJ*   PTCLDY    57  52  82 CALM      30.11S
ATLANTIC CITY  CLEAR     55  53  93 CALM      30.10S
HENDERSON NC   PTCLDY    65  57  73 S6        30.09S
GREENSBORO     CLOUDY    69  62  78 S6        30.07S
ROCKY MOUNT    CLEAR     60  57  89 CALM      30.09R
FAYETTEVILLE   MOCLDY    66  64  93 E5        30.05S
CHARLOTTE      MOCLDY    70  63  78 E7        30.05S
$$

VAZ100-190600-
MARINE

STATION/POSITION TIME  TEMP    WIND        PRES    WAVE   SWELL
                       AIR SEA DIR/SP/G            HT/PER HT/PER
                 (UTC) (F)     (DEG/KT/KT) (MB)    (FT/S) (FT/S)
44066 TX TWR #4  0500   69 72  310/  4/  6 1018.9R   2/10   2/10
CAPE MAY NJ      0500   70 76  270/  8/  9 1018.6S
LEWES DE         0500   64 73  240/  3/  3 1019.0R
15NM E FENWICK I 0500   71 72              1019.1S   3/11
OCEAN-CITY-INLET 0500   66 72  310/  4/  6 1018.7S
WACHAPREAGUE VA  0500   62 74   CALM  /  1 1019.0S
THOMAS POINT MD  0500   67 74  320/  6/  7 1020.5R
GOOSES REEF MD   0500   69     140/  4/  4 1019.7S
COVE POINT MD    0500   68     140/  5/  6 1019.1S
SOLOMONS ISLAND  0500      76                N/A
BISHOPS HEAD MD  0500   69 73  100/  5/  7 1018.7F
PINEY POINT MD   0500           80/  3/  3   N/A
POTOMAC MD       0500   70      10/  4/  4 1018.5S
CAMBRIDGE MD     0500   64 74  200/  3/  3 1018.9R
LEWISETTA VA     0500   67 74  290/  1/  2 1018.8S
RAPPAHANNOCK LGT 0500          110/  6/  6 1019.3S
STINGRAY PT      0500   72     170/  6/  8   N/A
YORK RVR RNG VA  0500   72     150/  6/  7 1018.4R
YORKTOWN VA      0500   68 76  240/  2/  2 1018.6R
JAMESTOWN VA     0500   68     230/  8/  8   N/A
DOMINION TERM VA 0500   70     170/  5/  6 1018.8R
KIPTOPEKE VA     0500      79   90/  3/  4   N/A
CHES BAY BRIDGE  0500   71 75  110/  4/  8 1018.3R
CAPE HENRY VA    0500   71     130/  6/  8 1017.5R
CHESAPEAKE LGHT  0400   71     130/  7/  8 1019.2R
WILLOUBY STN VA  0500   70      20/  2/  3 1017.6R
S CRANEY ISL VA  0500          160/  3/  5 1018.5R
CAPE HENRY BUOY  0500      75                N/A     3/12   2/12
1ST LANDING BUOY 0500   72     120/  8/ 12 1018.3R
CAPE CHARLES BUO 0500      74                N/A     3/11   3/11
OFFSHORE WE BUOY 0500      74                N/A     3/11   3/11
64NM E OF VA BCH 0500   72 72   60/  8/ 12 1018.3R   4/11   3/11
DUCK PIER NC     0500   72 75   80/  8/ 10 1017.9R
44100 DUCK FRF   0500      74                N/A     4/12   2/12
44056 DUCK FRF   0500                        N/A     3/12   2/12
OREGON INLET NC  0500   71 74   40/  9/ 12 1018.1S
HATTERAS NC      0500   72 77   50/  6/ 11 1018.2R
DIAMOND SHLS NC  0500   73      10/ 14/ 16 1017.3F   4/11   3/11
CAPE LOOKOUT NC  0400   76      60/ 16/ 18 1017.1R
$$



USA.gov is the U.S. government's official web portal to all federal, state and local government web resources and services.